Regional Weather Roundup
Issued by NWS

Home | Current Version | Previous Version | Graphics & Text | Print | Product List | Glossary Off
Versions: 1 2 3 4 5 6 7 8 9 10 11 12 13 14 15 16 17 18 19 20 21 22 23 24 25 26 27 28 29 30 31 32 33 34 35 36 37 38 39 40 41 42 43 44 45 46 47 48 49 50

000
ASUS43 KLSX 290810
RWRMO

WEATHER SUMMARY FOR MISSOURI
NATIONAL WEATHER SERVICE SPRINGFIELD MO
300 AM CDT MON AUG 29 2016

NOTE: "FAIR" INDICATES FEW OR NO CLOUDS BELOW 12,000 FEET WITH NO
       SIGNIFICANT WEATHER AND/OR OBSTRUCTIONS TO VISIBILITY.
       CURRENT SKY AND/OR WEATHER CONDITIONS ARE NOT AVAILABLE FOR
       CHILLICOTHE AND FARMINGTON.

MOZ001>031-035>038-043-044-053-054-290900-
...NORTHERN AND WESTERN MISSOURI...

CITY           SKY/WX    TMP DP  RH WIND       PRES   REMARKS
KANSAS CTY INT CLEAR     70  66  87 NE7       30.13R
KANSAS C DTWN  CLEAR     73  69  87 NE5       30.11R
LEE`S SUMMIT   CLEAR     72  70  93 E7        30.13R
ST JOSEPH      CLOUDY    71  68  90 NE3       30.14R
KIRKSVILLE     PTCLDY    72  70  93 SE5       30.15F

$$
MOZ066>068-077>081-088>096-101>105-290900-
...SOUTHWEST MISSOURI...

CITY           SKY/WX    TMP DP  RH WIND       PRES   REMARKS
SPRINGFIELD    CLEAR     74  68  81 E3        30.13S
JOPLIN         CLEAR     74  70  87 SE7       30.11F
BRANSON        PTCLDY    70  68  94 CALM      30.14S

$$
MOZ032>034-039>042-045>050-055>058-069>072-290900-
...CENTRAL MISSOURI...

CITY           SKY/WX    TMP DP  RH WIND       PRES   REMARKS
COLUMBIA       CLEAR     75  72  90 E5        30.14S
JEFFERSON CITY CLEAR     73  71  93 CALM      30.13S
ROLLA          CLEAR     73  71  93 SE6       30.14S
SEDALIA        CLEAR     73  70  90 SE5       30.14S
WHITEMAN AFB   CLEAR     72  72 100 SE6       30.11S
OSAGE BEACH    CLEAR     72  70  93 CALM      30.14S

$$
MOZ051-052-059>065-290900-
...EAST CENTRAL MISSOURI...

CITY           SKY/WX    TMP DP  RH WIND       PRES   REMARKS
ST LOUIS INTL  CLEAR     80  73  79 E3        30.14S
SPIRIT OF STL  CLEAR     74  73  97 CALM      30.12F
ST CHARLES     CLEAR     76  74  93 CALM      30.12F

$$
MOZ072>076-082>087-097>100-106>115-290900-
...SOUTH CENTRAL AND SOUTHEAST MISSOURI...

CITY           SKY/WX    TMP DP  RH WIND       PRES   REMARKS
CAPE GIRARDEAU CLEAR     74  72  93 CALM      30.10F
FARMINGTON     CLEAR     72  71  97 CALM      30.15S FOG
POPLAR BLUFF   CLEAR     75  73  93 N5        30.09F
WEST PLAINS    CLEAR     70  67  90 E3        30.16S

$$




USA.gov is the U.S. government's official web portal to all federal, state and local government web resources and services.